Tracking 29892 objects as of 21-Nov-2024
HD Live streaming from Space Station
objects crossing your sky now

NOAA 16 DEB

Track NOAA 16 DEB now!
10-day predictions


NORAD ID: 41071
Int'l Code: 2000-055AE
Perigee: 811.2 km
Apogee: 828.3 km
Inclination: 98.8 °
Period: 101.1 minutes
Semi major axis: 7190 km
RCS: Unknown
Launch date: September 21, 2000
Source: United States (US)
Launch site: AIR FORCE WESTERN TEST RANGE (AFWTR)

Note: This is SATELLITE DEBRIS
Your satellite tracking list
Your tracking list is empty




NASA's NSSDC Master Catalog

Two Line Element Set (TLE):
1 41071U 00055AE  24325.21507392  .00006287  00000-0  27664-2 0  9998
2 41071  98.8171  57.9464 0011907 214.6234 145.4170 14.23766669464000
Source of the keplerian elements: AFSPC